Погода в Алтайском

Россия / Алтайский край     52°47′08″N   78°45′27″E
темп.,
°C
ветер,
м/с
пор.,
м/с
влажн.,
%
обл.,
%
осадки,
мм/ч
давл.,
гПа
погр.,
м
14 июня, пн
пн1401:00+15зсз3784100 0.1 1018232
04:00+13зсз35957 0.1 1018100
07:00+15с248936 0.1 1018137
10:00+21ссв345516 0.0 1018901
13:00+24ссв664496 0.1 10182192
16:00+25ссв77323 0.0 10182010
19:00+23ссв77365 0.0 10191799
22:00+18ссв48555 0.0 1020145
15 июня, вт
вт1501:00+15св47625 0.0 1020121
04:00+13св33705 0.0 102036
07:00+14ссв236414 0.0 102186
10:00+20ссв334246 0.0 1021701
13:00+25св4534100 0.0 10191488
16:00+27св443316 0.0 10172334
19:00+27всв453581 0.0 10172183
22:00+22юв22501 0.0 101613
16 июня, ср
ср1601:00+21зюз335242 0.0 101648
04:00+19зюз34590 0.0 101641
07:00+20з35565 0.0 1015130
10:00+26зсз34365 0.0 1015849
13:00+29з332647 0.0 10142738
16:00+30зсз4424100 0.0 10123016
19:00+28зсз3430100 0.0 1011113
22:00+24ссз33446 0.0 101224
17 июня, чт
чт1701:00+23зюз224682 0.0 101122
04:00+19з335420 0.0 101037
07:00+20з245830 0.0 1010130
10:00+25зсз344842 0.5 1010786
13:00+29зсз4538100 0.6 10082448
16:00+27сз5739100 0.1 10082120
19:00+29сз772810 0.1 10072760
22:00+23ссв33450 0.0 100723
18 июня, пт
пт1801:00+20юв34601 0.0 100743
04:00+19ю11600 0.0 100711
07:00+21ююз35535 0.0 1006116
10:00+28юз45345 0.0 1005669
13:00+32зюз452716 0.1 10042655
16:00+29сз3535100 0.2 1002179
19:00+28юв233899 0.5 100143
22:00+25ю114692 0.0 100111